H1 CPF 2 NER 2024 1 5 9 005 01 glonass141 H2 1908801 9141 44850 2024 1 5 0 0 0 2024 1 8 23 45 0 900 1 1 0 0 0 1 H9 10 0 60314 0.00000 0 9893142.033 -9932917.055 -21286439.507 10 0 60314 900.00000 0 12431865.185 -10114884.500 -19822734.346 10 0 60314 1800.00000 0 14747044.870 -10462291.561 -17973275.226 10 0 60314 2700.00000 0 16784388.050 -10936979.938 -15774170.201 10 0 60314 3600.00000 0 18499424.542 -11492379.903 -13268311.095 10 0 60314 4500.00000 0 19859144.184 -12075617.666 -10504527.611 10 0 60314 5400.00000 0 20843162.040 -12629900.992 -7536627.172 10 0 60314 6300.00000 0 21444364.596 -13097081.314 -4422339.943 10 0 60314 7200.00000 0 21669011.836 -13420283.250 -1222190.294 10 0 60314 8100.00000 0 21536293.040 -13546489.998 2001682.737 10 0 60314 9000.00000 0 21077357.024 -13428975.162 5186732.601 10 0 60314 9900.00000 0 20333859.528 -13029478.505 8271216.292 10 0 60314 10800.00000 0 19356090.371 -12320034.128 11195385.844 10 0 60314 11700.00000 0 18200760.219 -11284374.474 13902637.498 10 0 60314 12600.00000 0 16928540.515 -9918851.414 16340596.894 10 0 60314 13500.00000 0 15601459.941 -8232835.945 18462120.217 10 0 60314 14400.00000 0 14280266.289 -6248579.815 20226193.238 10 0 60314 15300.00000 0 13021863.317 -4000544.330 21598712.076 10 0 60314 16200.00000 0 11876928.768 -1534223.565 22553131.999 10 0 60314 17100.00000 0 10887811.867 1095490.292 23070972.934 10 0 60314 18000.00000 0 10086796.877 3826333.199 23142172.863 10 0 60314 18900.00000 0 9494804.195 6591004.881 22765282.872 10 0 60314 19800.00000 0 9120582.479 9319719.087 21947500.236 10 0 60314 20700.00000 0 8960425.235 11942864.749 20704538.516 10 0 60314 21600.00000 0 8998423.792 14393669.682 19060336.380 10 0 60314 22500.00000 0 9207246.598 16610757.883 17046609.558 10 0 60314 23400.00000 0 9549412.991 18540495.383 14702253.100 10 0 60314 24300.00000 0 9979008.969 20139027.758 12072603.916 10 0 60314 25200.00000 0 10443773.849 21373924.587 9208576.268 10 0 60314 26100.00000 0 10887470.752 22225361.893 6165685.633 10 0 60314 27000.00000 0 11252441.440 22686792.481 3002978.816 10 0 60314 27900.00000 0 11482237.642 22765075.222 -218109.570 10 0 60314 28800.00000 0 11524217.116 22480056.916 -3434952.125 10 0 60314 29700.00000 0 11331993.569 21863623.530 -6584951.679 10 0 60314 30600.00000 0 10867635.230 20958260.162 -9606767.796 10 0 60314 31500.00000 0 10103517.101 19815180.141 -12441521.830 10 0 60314 32400.00000 0 9023746.413 18492102.295 -15033955.881 10 0 60314 33300.00000 0 7625098.783 17050770.549 -17333521.825 10 0 60314 34200.00000 0 5917423.442 15554321.208 -19295377.976 10 0 60314 35100.00000 0 3923498.507 14064609.817 -20881272.952 10 0 60314 36000.00000 0 1678340.786 12639611.177 -22060298.752 10 0 60314 36900.00000 0 -772002.093 11331002.870 -22809497.842 10 0 60314 37800.00000 0 -3372127.405 10182034.588 -23114312.203 10 0 60314 38700.00000 0 -6059351.192 9225773.184 -22968865.631 10 0 60314 39600.00000 0 -8766093.686 8483797.133 -22376073.973 10 0 60314 40500.00000 0 -11422476.599 7965394.746 -21347581.598 10 0 60314 41400.00000 0 -13959023.742 7667298.884 -19903525.805 10 0 60314 42300.00000 0 -16309352.149 7573968.052 -18072134.368 10 0 60314 43200.00000 0 -18412741.456 7658400.463 -15889164.699 10 0 60314 44100.00000 0 -20216474.580 7883445.050 -13397196.237 10 0 60314 45000.00000 0 -21677852.505 8203552.429 -10644790.575 10 0 60314 45900.00000 0 -22765799.905 8566890.251 -7685536.431 10 0 60314 46800.00000 0 -23461995.750 8917732.156 -4576998.782 10 0 60314 47700.00000 0 -23761483.106 9199018.213 -1379593.339 10 0 60314 48600.00000 0 -23672734.361 9354977.754 1844591.080 10 0 60314 49500.00000 0 -23217171.105 9333703.274 5032998.976 10 0 60314 50400.00000 0 -22428160.642 9089566.487 8123819.657 10 0 60314 51300.00000 0 -21349532.849 8585374.658 11057180.243 10 0 60314 52200.00000 0 -20033680.934 7794176.577 13776297.435 10 0 60314 53100.00000 0 -18539326.510 6700642.427 16228566.277 10 0 60314 54000.00000 0 -16929043.042 5301959.874 18366565.837 10 0 60314 54900.00000 0 -15266641.108 3608208.806 20148963.545 10 0 60314 55800.00000 0 -13614524.195 1642198.822 21541302.018 10 0 60314 56700.00000 0 -12031124.405 -561224.383 22516654.537 10 0 60314 57600.00000 0 -10568523.702 -2956375.997 23056137.716 10 0 60314 58500.00000 0 -9270358.572 -5488384.084 23149272.470 10 0 60314 59400.00000 0 -8170094.058 -8095229.754 22794186.879 10 0 60314 60300.00000 0 -7289738.016 -10710092.929 21997657.237 10 0 60314 61200.00000 0 -6639048.413 -13263908.431 20774986.105 10 0 60314 62100.00000 0 -6215266.359 -15688028.342 19149718.965 10 0 60314 63000.00000 0 -6003386.058 -17916881.901 17153203.734 10 0 60314 63900.00000 0 -5976950.753 -19890523.671 14824000.172 10 0 60314 64800.00000 0 -6099341.959 -21556964.830 12207149.032 10 0 60314 65700.00000 0 -6325508.594 -22874190.717 9353313.474 10 0 60314 66600.00000 0 -6604063.982 -23811780.143 6317808.039 10 0 60314 67500.00000 0 -6879662.812 -24352058.090 3159532.922 10 0 60314 68400.00000 0 -7095557.878 -24490732.490 -60166.431 10 0 60314 69300.00000 0 -7196228.192 -24236987.212 -3278692.365 10 0 60314 70200.00000 0 -7129966.435 -23613026.239 -6433417.254 10 0 60314 71100.00000 0 -6851314.938 -22653087.219 -9462910.442 10 0 60314 72000.00000 0 -6323245.292 -21401965.312 -12308144.971 10 0 60314 72900.00000 0 -5518987.335 -19913109.187 -14913659.375 10 0 60314 73800.00000 0 -4423427.960 -18246369.487 -17228650.704 10 0 60314 74700.00000 0 -3034018.497 -16465495.025 -19207976.204 10 0 60314 75600.00000 0 -1361150.303 -14635482.818 -20813043.159 10 0 60314 76500.00000 0 572019.004 -12819894.209 -22012568.747 10 0 60314 77400.00000 0 2730282.799 -11078250.761 -22783194.598 10 0 60314 78300.00000 0 5067617.122 -9463619.928 -23109943.819 10 0 60314 79200.00000 0 7528875.790 -8020492.191 -22986511.620 10 0 60314 80100.00000 0 10051878.273 -6783038.766 -22415384.075 10 0 60314 81000.00000 0 12569803.047 -5773822.475 -21407783.082 10 0 60314 81900.00000 0 15013786.279 -5003014.962 -19983439.106 10 0 60314 82800.00000 0 17315617.034 -4468151.787 -18170196.688 10 0 60314 83700.00000 0 19410416.272 -4154433.973 -16003461.072 10 0 60314 84600.00000 0 21239187.710 -4035561.403 -13525497.395 10 0 60314 85500.00000 0 22751134.118 -4075060.928 -10784596.845 10 0 60315 0.00000 0 23905642.664 -4228051.175 -7834127.032 10 0 60315 900.00000 0 24673857.614 -4443367.812 -4731484.202 10 0 60315 1800.00000 0 25039774.229 -4665957.704 -1536972.419 10 0 60315 2700.00000 0 25000811.565 -4839439.812 1687373.121 10 0 60315 3600.00000 0 24567840.123 -4908723.556 4878991.422 10 0 60315 4500.00000 0 23764665.479 -4822573.587 7976007.414 10 0 60315 5400.00000 0 22626991.144 -4536012.542 10918426.428 10 0 60315 6300.00000 0 21200905.241 -4012460.555 13649288.455 10 0 60315 7200.00000 0 19540955.306 -3225521.600 16115760.433 10 0 60315 8100.00000 0 17707892.389 -2160341.932 18270146.415 10 0 60315 9000.00000 0 15766178.664 -814483.703 20070797.224 10 0 60315 9900.00000 0 13781362.100 801722.837 21482903.335 10 0 60315 10800.00000 0 11817426.735 2665363.745 22479157.009 10 0 60315 11700.00000 0 9934227.602 4741655.542 23040272.134 10 0 60315 12600.00000 0 8185115.636 6985160.619 23155352.739 10 0 60315 13500.00000 0 6614849.894 9341454.985 22822103.670 10 0 60315 14400.00000 0 5257882.497 11749180.988 22046879.584 10 0 60315 15300.00000 0 4137086.602 14142401.787 20844570.969 10 0 60315 16200.00000 0 3262979.556 16453161.857 19238328.651 10 0 60315 17100.00000 0 2633473.252 18614148.975 17259130.893 10 0 60315 18000.00000 0 2234162.099 20561348.470 14945200.010 10 0 60315 18900.00000 0 2039136.877 22236580.216 12341278.170 10 0 60315 19800.00000 0 2012290.827 23589813.048 9497774.786 10 0 60315 20700.00000 0 2109063.682 24581159.785 6469800.639 10 0 60315 21600.00000 0 2278550.660 25182468.747 3316106.375 10 0 60315 22500.00000 0 2465887.651 25378444.022 97945.278 10 0 60315 23400.00000 0 2614811.682 25167246.141 -3122117.724 10 0 60315 24300.00000 0 2670287.744 24560546.521 -6281427.431 10 0 60315 25200.00000 0 2581089.702 23583032.060 -9318465.679 10 0 60315 26100.00000 0 2302224.521 22271379.693 -12174059.653 10 0 60315 27000.00000 0 1797095.322 20672743.300 -14792546.508 10 0 60315 27900.00000 0 1039309.665 18842816.341 -17122870.328 10 0 60315 28800.00000 0 14054.519 16843551.801 -19119588.860 10 0 60315 29700.00000 0 -1281022.235 14740635.679 -20743769.323 10 0 60315 30600.00000 0 -2835462.772 12600820.790 -21963755.081 10 0 60315 31500.00000 0 -4626199.007 10489233.503 -22755787.648 10 0 60315 32400.00000 0 -6618293.776 8466767.008 -23104471.696 10 0 60315 33300.00000 0 -8766193.208 6587670.753 -23003073.966 10 0 60315 34200.00000 0 -11015438.179 4897437.168 -22453650.499 10 0 60315 35100.00000 0 -13304763.271 3431073.808 -21467000.062 10 0 60315 36000.00000 0 -15568495.262 2211832.493 -20062445.194 10 0 60315 36900.00000 0 -17739150.518 1250447.451 -18267445.700 10 0 60315 37800.00000 0 -19750122.309 544912.700 -16117052.787 10 0 60315 38700.00000 0 -21538345.443 80806.026 -13653215.124 10 0 60315 39600.00000 0 -23046826.571 -167856.288 -10923951.112 10 0 60315 40500.00000 0 -24226934.449 -237272.209 -7982404.210 10 0 60315 41400.00000 0 -25040354.667 -172073.183 -4885800.432 10 0 60315 42300.00000 0 -25460627.690 -23186.907 -1694329.089 10 0 60315 43200.00000 0 -25474206.792 154564.418 1530030.851 10 0 60315 44100.00000 0 -25080992.753 305027.693 4724715.459 10 0 60315 45000.00000 0 -24294324.332 373335.205 7827787.879 10 0 60315 45900.00000 0 -23140426.280 308462.753 10779134.186 10 0 60315 46800.00000 0 -21657339.152 65621.580 13521620.100 10 0 60315 47700.00000 0 -19893376.780 -391616.460 16002186.811 10 0 60315 48600.00000 0 -17905176.236 -1089549.638 18172865.510 10 0 60315 49500.00000 0 -15755421.937 -2043007.018 19991692.292 10 0 60315 50400.00000 0 -13510338.492 -3254494.996 21423507.023 10 0 60315 51300.00000 0 -11237055.691 -4713865.590 22440622.093 10 0 60315 52200.00000 0 -9000954.044 -6398520.880 23023349.398 10 0 60315 53100.00000 0 -6863099.721 -8274145.983 23160376.380 10 0 60315 54000.00000 0 -4877873.801 -10295941.421 22848984.538 10 0 60315 54900.00000 0 -3090892.715 -12410305.300 22095106.384 10 0 60315 55800.00000 0 -1537304.895 -14556897.278 20913219.465 10 0 60315 56700.00000 0 -240533.343 -16671000.499 19326078.732 10 0 60315 57600.00000 0 788484.263 -18686085.158 17364291.269 10 0 60315 58500.00000 0 1551526.568 -20536468.532 15065740.128 10 0 60315 59400.00000 0 2062780.993 -22159961.843 12474866.812 10 0 60315 60300.00000 0 2348010.223 -23500394.085 9641824.688 10 0 60315 61200.00000 0 2443227.291 -24509907.375 6621518.314 10 0 60315 62100.00000 0 2392934.554 -25150927.169 3472546.210 10 0 60315 63000.00000 0 2248000.494 -25397723.729 256066.868 10 0 60315 63900.00000 0 2063264.011 -25237497.830 -2965390.163 10 0 60315 64800.00000 0 1894967.873 -24670943.493 -6129144.742 10 0 60315 65700.00000 0 1798130.760 -23712262.416 -9173593.792 10 0 60315 66600.00000 0 1823970.418 -22388628.051 -12039421.193 10 0 60315 67500.00000 0 2017488.640 -20739120.678 -14670765.158 10 0 60315 68400.00000 0 2415322.167 -18813177.500 -17016319.123 10 0 60315 69300.00000 0 3043952.402 -16668622.556 -19030343.431 10 0 60315 70200.00000 0 3918351.552 -14369359.251 -20673567.060 10 0 60315 71100.00000 0 5041124.182 -11982822.651 -21913961.028 10 0 60315 72000.00000 0 6402181.922 -9577298.930 -22727367.813 10 0 60315 72900.00000 0 7978966.232 -7219224.762 -23097974.294 10 0 60315 73800.00000 0 9737210.763 -4970580.161 -23018618.978 10 0 60315 74700.00000 0 11632211.732 -2886484.023 -22490927.703 10 0 60315 75600.00000 0 13610553.175 -1013092.725 -21525275.572 10 0 60315 76500.00000 0 15612214.628 614110.953 -20140576.329 10 0 60315 77400.00000 0 17572972.533 1971568.053 -18363903.857 10 0 60315 78300.00000 0 19426994.333 3048382.053 -16229953.808 10 0 60315 79200.00000 0 21109516.152 3846516.824 -13780356.551 10 0 60315 80100.00000 0 22559491.452 4380447.854 -11062855.535 10 0 60315 81000.00000 0 23722099.534 4676283.815 -8130367.833 10 0 60315 81900.00000 0 24551008.753 4770397.820 -5039945.919 10 0 60315 82800.00000 0 25010299.905 4707628.324 -1851661.597 10 0 60315 83700.00000 0 25075969.752 4539127.570 1372565.521 10 0 60315 84600.00000 0 24736952.478 4319949.969 4570171.739 10 0 60315 85500.00000 0 23995617.359 4106483.467 7679161.489 10 0 60316 0.00000 0 22867723.003 3953833.021 10639304.234 10 0 60316 900.00000 0 21381830.463 3913266.782 13393294.654 10 0 60316 1800.00000 0 19578202.162 4029832.761 15887850.285 10 0 60316 2700.00000 0 17507231.162 4340245.693 18074731.527 10 0 60316 3600.00000 0 15227467.967 4871132.735 19911661.519 10 0 60316 4500.00000 0 12803326.145 5637711.146 21363130.974 10 0 60316 5400.00000 0 10302561.601 6642953.142 22401073.532 10 0 60316 6300.00000 0 7793629.010 7877273.001 23005399.868 10 0 60316 7200.00000 0 5343023.649 9318750.035 23164381.245 10 0 60316 8100.00000 0 3012717.248 10933879.101 22874875.803 10 0 60316 9000.00000 0 857792.473 12678818.772 22142393.462 10 0 60316 9900.00000 0 -1075627.382 14501086.850 20980997.911 10 0 60316 10800.00000 0 -2752068.928 16341634.515 19413046.863 10 0 60316 11700.00000 0 -4147950.133 18137214.574 17468774.431 10 0 60316 12600.00000 0 -5252321.647 19822946.765 15185722.233 10 0 60316 13500.00000 0 -6067077.288 21334974.412 12608028.637 10 0 60316 14400.00000 0 -6606624.787 22613102.246 9785588.253 10 0 60316 15300.00000 0 -6897030.284 23603305.291 6773096.537 10 0 60316 16200.00000 0 -6974672.089 24260003.266 3628996.897 10 0 60316 17100.00000 0 -6884460.074 24548004.163 414349.991 10 0 60316 18000.00000 0 -6677695.626 24444033.914 -2808353.032 10 0 60316 18900.00000 0 -6409662.793 23937786.100 -5976410.041 10 0 60316 19800.00000 0 -6137053.034 23032445.667 -9028135.854 10 0 60316 20700.00000 0 -5915333.573 21744662.806 -11904073.629 10 0 60316 21600.00000 0 -5796172.102 20103976.520 -14548164.969 10 0 60316 22500.00000 0 -5825028.478 18151710.825 -16908854.679 10 0 60316 23400.00000 0 -6039017.089 15939389.207 -18940107.408 10 0 60316 24300.00000 0 -6465132.105 13526733.471 -20602315.282 10 0 60316 25200.00000 0 -7118912.270 10979330.890 -21863078.049 10 0 60316 26100.00000 0 -8003603.082 8366067.678 -22697839.920 10 0 60316 27000.00000 0 -9109852.849 5756436.601 -23090370.431 10 0 60316 27900.00000 0 -10415956.255 3217831.690 -23033079.943 10 0 60316 28800.00000 0 -11888635.654 812943.422 -22527163.802 10 0 60316 29700.00000 0 -13484327.366 -1402636.902 -21582572.738 10 0 60316 30600.00000 0 -15150918.783 -3382503.915 -20217810.554 10 0 60316 31500.00000 0 -16829862.910 -5091129.701 -18459563.631 10 0 60316 32400.00000 0 -18458581.068 -6505090.704 -16342170.118 10 0 60316 33300.00000 0 -19973052.274 -7613780.419 -13906939.797 10 0 60316 34200.00000 0 -21310480.064 -8419580.073 -11201338.640 10 0 60316 35100.00000 0 -22411924.326 -8937482.546 -8278054.664 10 0 60316 36000.00000 0 -23224787.445 -9194187.775 -5193964.020 10 0 60316 36900.00000 0 -23705050.318 -9226710.162 -2009018.192 10 0 60316 37800.00000 0 -23819164.611 -9080558.858 1214925.375 10 0 60316 38700.00000 0 -23545522.387 -8807569.645 4415306.015 10 0 60316 39600.00000 0 -22875442.179 -8463481.346 7530072.218 10 0 60316 40500.00000 0 -21813630.924 -8105360.031 10498880.050 10 0 60316 41400.00000 0 -20378103.361 -7788980.204 13264254.668 10 0 60316 42300.00000 0 -18599562.853 -7566273.387 15772692.908 10 0 60316 43200.00000 0 -16520270.036 -7482951.298 17975686.538 10 0 60316 44100.00000 0 -14192446.649 -7576403.024 19830647.567 10 0 60316 45000.00000 0 -11676280.735 -7873953.918 21301718.987 10 0 60316 45900.00000 0 -9037615.476 -8391558.664 22360456.709 10 0 60316 46800.00000 0 -6345416.376 -9132982.966 22986370.748 10 0 60316 47700.00000 0 -3669120.462 -10089508.146 23167316.293 10 0 60316 48600.00000 0 -1075975.608 -11240171.497 22899727.811 10 0 60316 49500.00000 0 1371521.590 -12552533.305 22188691.915 10 0 60316 50400.00000 0 3617984.906 -13983939.895 21047857.376 10 0 60316 51300.00000 0 5617198.291 -15483231.633 19499183.288 10 0 60316 52200.00000 0 7333792.105 -16992826.379 17572529.104 10 0 60316 53100.00000 0 8744466.853 -18451093.090 15305093.045 10 0 60316 54000.00000 0 9838713.906 -19794917.810 12740708.100 10 0 60316 54900.00000 0 10619003.137 -20962355.729 9929007.626 10 0 60316 55800.00000 0 11100429.389 -21895258.643 6924475.271 10 0 60316 56700.00000 0 11309832.202 -22541767.471 3785396.465 10 0 60316 57600.00000 0 11284425.409 -22858564.380 572731.074 10 0 60316 58500.00000 0 11069994.024 -22812788.488 -2651071.113 10 0 60316 59400.00000 0 10718734.525 -22383532.815 -5823288.882 10 0 60316 60300.00000 0 10286830.070 -21562857.454 -8882157.723 10 0 60316 61200.00000 0 9831863.916 -20356274.227 -11768082.694 10 0 60316 62100.00000 0 9410181.561 -18782680.505 -14424811.195 10 0 60316 63000.00000 0 9074314.599 -16873743.258 -16800541.579 10 0 60316 63900.00000 0 8870576.842 -14672757.980 -18848944.672 10 0 60316 64800.00000 0 8836935.980 -12233029.509 -20530077.297 10 0 60316 65700.00000 0 9001252.271 -9615842.222 -21811169.090 10 0 60316 66600.00000 0 9379959.981 -6888104.567 -22667266.726 10 0 60316 67500.00000 0 9977248.269 -4119766.633 -23081722.694 10 0 60316 68400.00000 0 10784776.781 -1381118.988 -23046519.071 10 0 60316 69300.00000 0 11781938.299 1259914.150 -22562420.165 10 0 60316 70200.00000 0 12936657.400 3740374.317 -21638951.416 10 0 60316 71100.00000 0 14206691.260 6004652.544 -20294205.447 10 0 60316 72000.00000 0 15541377.334 8006558.458 -18554479.608 10 0 60316 72900.00000 0 16883753.728 9710989.358 -16453752.727 10 0 60316 73800.00000 0 18172962.340 11095130.976 -14033011.931 10 0 60316 74700.00000 0 19346832.893 12149141.457 -11339443.389 10 0 60316 75600.00000 0 20344538.527 12876292.152 -8425503.491 10 0 60316 76500.00000 0 21109210.753 13292561.669 -5347889.301 10 0 60316 77400.00000 0 21590403.444 13425702.702 -2166429.080 10 0 60316 78300.00000 0 21746302.250 13313823.316 1057084.878 10 0 60316 79200.00000 0 21545586.774 13003544.545 4260097.909 10 0 60316 80100.00000 0 20968867.623 12547813.715 7380505.386 10 0 60316 81000.00000 0 20009638.788 12003467.065 10357852.375 10 0 60316 81900.00000 0 18674705.905 11428645.083 13134497.451 10 0 60316 82800.00000 0 16984072.944 10880169.717 15656718.604 10 0 60316 83700.00000 0 14970292.649 10410993.796 17875740.821 10 0 60316 84600.00000 0 12677307.750 10067829.290 19748666.551 10 0 60316 85500.00000 0 10158831.066 9889053.329 21239292.362 10 0 60317 0.00000 0 7476331.363 9902978.963 22318797.345 10 0 60317 900.00000 0 4696705.974 10126562.470 22966291.738 10 0 60317 1800.00000 0 1889738.888 10564600.827 23169214.888 10 0 60317 2700.00000 0 -874556.943 11209452.879 22923577.549 10 0 60317 3600.00000 0 -3528601.312 12041296.329 22234042.577 10 0 60317 4500.00000 0 -6009805.546 13028910.600 21113842.914 10 0 60317 5400.00000 0 -8262923.774 14130954.172 19584537.665 10 0 60317 6300.00000 0 -10242100.599 15297684.489 17675609.825 10 0 60317 7200.00000 0 -11912531.078 16473050.097 15423912.024 10 0 60317 8100.00000 0 -13251664.516 17597068.924 12872969.373 10 0 60317 9000.00000 0 -14249902.057 18608394.230 10072151.253 10 0 60317 9900.00000 0 -14910758.677 19446961.228 7075726.632 10 0 60317 10800.00000 0 -15250482.401 20056603.376 3941820.027 10 0 60317 11700.00000 0 -15297146.193 20387527.765 731287.574 10 0 60317 12600.00000 0 -15089250.280 20398544.298 -2493465.216 10 0 60317 13500.00000 0 -14673893.559 20058953.126 -5669700.885 10 0 60317 14400.00000 0 -14104591.323 19350008.804 -8735578.323 10 0 60317 15300.00000 0 -13438831.911 18265897.270 -11631367.044 10 0 60317 16200.00000 0 -12735476.403 16814182.301 -14300622.595 10 0 60317 17100.00000 0 -12052112.376 15015700.619 -16691298.939 10 0 60317 18000.00000 0 -11442474.989 12903908.370 -18756774.859 10 0 60317 18900.00000 0 -10954045.807 10523705.106 -20456773.309 10 0 60317 19800.00000 0 -10625932.184 7929783.732 -21758154.918 10 0 60317 20700.00000 0 -10487117.979 5184575.115 -22635569.583 10 0 60317 21600.00000 0 -10555160.332 2355873.209 -23071953.147 10 0 60317 22500.00000 0 -10835388.072 -485759.945 -23058859.440 10 0 60317 23400.00000 0 -11320635.771 -3269700.766 -22596621.380 10 0 60317 24300.00000 0 -11991524.503 -5927969.169 -21694338.362 10 0 60317 25200.00000 0 -12817277.042 -8397819.259 -20369690.653 10 0 60317 26100.00000 0 -13757032.444 -10624107.938 -18648584.994 10 0 60317 27000.00000 0 -14761603.760 -12561343.220 -16564638.953 10 0 60317 27900.00000 0 -15775603.859 -14175327.877 -14158514.753 10 0 60317 28800.00000 0 -16739848.804 -15444331.130 -11477116.272 10 0 60317 29700.00000 0 -17593936.622 -16359741.273 -8572665.637 10 0 60317 30600.00000 0 -18278892.040 -16926174.045 -5501678.099 10 0 60317 31500.00000 0 -18739765.181 -17161034.522 -2323855.922 10 0 60317 32400.00000 0 -18928074.468 -17093553.323 899076.521 10 0 60317 33300.00000 0 -18803990.783 -16763339.889 4104573.299 10 0 60317 34200.00000 0 -18338171.192 -16218515.719 7230479.405 10 0 60317 35100.00000 0 -17513165.535 -15513507.718 10216231.560 10 0 60317 36000.00000 0 -16324337.191 -14706595.600 13004024.277 10 0 60317 36900.00000 0 -14780260.006 -13857317.149 15539919.111 10 0 60317 37800.00000 0 -12902574.862 -13023840.402 17774876.447 10 0 60317 38700.00000 0 -10725312.021 -12260412.789 19665691.036 10 0 60317 39600.00000 0 -8293707.323 -11614993.558 21175814.539 10 0 60317 40500.00000 0 -5662560.687 -11127167.706 22276050.502 10 0 60317 41400.00000 0 -2894203.998 -10826427.805 22945109.690 10 0 60317 42300.00000 0 -56161.297 -10730894.748 23170016.112 10 0 60317 43200.00000 0 2781403.641 -10846530.376 22946356.673 10 0 60317 44100.00000 0 5548348.545 -11166874.716 22278369.954 10 0 60317 45000.00000 0 8177214.442 -11673319.136 21178872.209 10 0 60317 45900.00000 0 10605779.627 -12335904.738 19669021.358 10 0 60317 46800.00000 0 12779401.453 -13114613.701 17777922.430 10 0 60317 47700.00000 0 14653049.898 -13961100.839 15542080.644 10 0 60317 48600.00000 0 16192949.044 -14820794.186 13004711.085 10 0 60317 49500.00000 0 17377758.358 -15635277.680 10214916.690 10 0 60317 50400.00000 0 18199244.235 -16344856.724 7226748.970 10 0 60317 51300.00000 0 18662413.284 -16891199.078 4098168.486 10 0 60317 52200.00000 0 18785101.093 -17219939.672 889924.403 10 0 60317 53100.00000 0 18597033.113 -17283138.711 -2335625.376 10 0 60317 54000.00000 0 18138396.701 -17041487.991 -5515730.457 10 0 60317 54900.00000 0 17457984.235 -16466170.472 -8588476.321 10 0 60317 55800.00000 0 16610985.803 -15540292.471 -11493999.914 10 0 60317 56700.00000 0 15656525.128 -14259825.755 -14175667.616 10 0 60317 57600.00000 0 14655043.662 -12634017.571 -16581191.370 10 0 60317 58500.00000 0 13665644.429 -10685249.317 -18663659.913 10 0 60317 59400.00000 0 12743509.027 -8448348.105 -20382463.928 10 0 60317 60300.00000 0 11937498.077 -5969378.813 -21704096.208 10 0 60317 61200.00000 0 11288037.440 -3303966.451 -22602810.590 10 0 60317 62100.00000 0 10825380.220 -515218.618 -23061126.516 10 0 60317 63000.00000 0 10568318.270 2328665.257 -23070169.356 10 0 60317 63900.00000 0 10523397.638 5156997.917 -22629839.972 10 0 60317 64800.00000 0 10684670.698 7899312.742 -21748810.630 10 0 60317 65700.00000 0 11033994.781 10488063.600 -20444347.789 10 0 60317 66600.00000 0 11541863.776 12861203.549 -18741965.790 10 0 60317 67500.00000 0 12168736.536 14964535.175 -16674918.852 10 0 60317 68400.00000 0 12866804.798 16753735.193 -14283541.921 10 0 60317 69300.00000 0 13582124.826 18195969.786 -11614453.975 10 0 60317 70200.00000 0 14257021.613 19271034.661 -8719640.043 10 0 60317 71100.00000 0 14832663.191 19971973.895 -5655430.552 10 0 60317 72000.00000 0 15251695.551 20305153.716 -2481398.659 10 0 60317 72900.00000 0 15460826.465 20289790.361 740802.331 10 0 60317 73800.00000 0 15413248.909 19956954.001 3948638.303 10 0 60317 74700.00000 0 15070801.945 19348092.722 7079906.779 10 0 60317 75600.00000 0 14405778.264 18513140.308 10073938.817 10 0 60317 76500.00000 0 13402302.697 17508288.690 12872767.292 10 0 60317 77400.00000 0 12057224.122 16393519.444 15422239.390 10 0 60317 78300.00000 0 10380483.615 15229998.255 17673052.619 10 0 60317 79200.00000 0 8394943.541 14077441.489 19581695.472 10 0 60317 80100.00000 0 6135684.427 12991564.549 21111275.808 10 0 60317 81000.00000 0 3648798.304 12021717.861 22232222.347 10 0 60317 81900.00000 0 989727.644 11208808.225 22922847.055 10 0 60317 82800.00000 0 -1778782.633 10583591.220 23169758.625 10 0 60317 83700.00000 0 -4589036.883 10165405.042 22968119.890 10 0 60317 84600.00000 0 -7370948.762 9961397.977 22321744.523 10 0 60317 85500.00000 0 -10054705.511 9966281.532 21243031.027 99